Hourly Weather Afonihino

Today, 7 March, Sunday

Time Temperature Precipitation Wind Pressure Humidity
00:00 -4°C° 0.1 mm 8 mps 743 mmHg 76%
01:00 -4°C° 0.1 mm 8 mps 742 mmHg 84%
02:00 -4°C° 0 mm 8 mps 741 mmHg 93%
03:00 -4°C° 0.7 mm 7 mps 741 mmHg 86%
04:00 -4°C° 0.7 mm 7 mps 740 mmHg 79%
05:00 -5°C° 0.7 mm 6 mps 740 mmHg 73%
06:00 -5°C° 0 mm 5 mps 740 mmHg 71%
07:00 -5°C° 0 mm 4 mps 740 mmHg 69%
08:00 -5°C° 0 mm 3 mps 740 mmHg 67%
09:00 -6°C° 0.5 mm 5 mps 740 mmHg 72%
10:00 -6°C° 0.5 mm 6 mps 739 mmHg 77%
11:00 -6°C° 0.5 mm 7 mps 739 mmHg 81%
12:00 -6°C° 0.3 mm 7 mps 739 mmHg 72%
13:00 -6°C° 0.3 mm 7 mps 740 mmHg 62%
14:00 -4°C° 0.3 mm 7 mps 740 mmHg 53%
15:00 -5°C° 0.1 mm 6 mps 740 mmHg 59%
16:00 -5°C° 0.1 mm 6 mps 740 mmHg 65%
17:00 -6°C° 0.1 mm 5 mps 740 mmHg 71%
18:00 -6°C° 0.1 mm 5 mps 740 mmHg 77%
19:00 -6°C° 0.1 mm 5 mps 741 mmHg 83%
20:00 -7°C° 0.1 mm 5 mps 741 mmHg 90%
21:00 -7°C° 0.2 mm 4 mps 741 mmHg 91%
22:00 -7°C° 0.2 mm 4 mps 742 mmHg 92%
23:00 -6°C° 0.2 mm 3 mps 742 mmHg 93%

Tomorrow, 8 March, Monday

Time Temperature Precipitation Wind Pressure Humidity
00:00 -7°C° 0 mm 3 mps 743 mmHg 90%
01:00 -8°C° 0 mm 3 mps 743 mmHg 87%
02:00 -9°C° 0 mm 3 mps 744 mmHg 84%
03:00 -9°C° 0 mm 3 mps 745 mmHg 85%
04:00 -10°C° 0 mm 4 mps 745 mmHg 86%
05:00 -10°C° 0 mm 4 mps 746 mmHg 88%
06:00 -11°C° 0 mm 4 mps 747 mmHg 86%
07:00 -11°C° 0 mm 4 mps 747 mmHg 85%
08:00 -13°C° 0 mm 5 mps 748 mmHg 84%
09:00 -11°C° 0 mm 4 mps 749 mmHg 81%
10:00 -11°C° 0 mm 4 mps 749 mmHg 79%
11:00 -10°C° 0 mm 4 mps 750 mmHg 76%
12:00 -10°C° 0 mm 4 mps 751 mmHg 75%
13:00 -9°C° 0 mm 4 mps 751 mmHg 73%
14:00 -9°C° 0 mm 4 mps 752 mmHg 72%
15:00 -9°C° 0 mm 4 mps 752 mmHg 72%
16:00 -9°C° 0 mm 4 mps 753 mmHg 72%
17:00 -9°C° 0 mm 4 mps 753 mmHg 72%
18:00 -9°C° 0 mm 3 mps 754 mmHg 76%
19:00 -10°C° 0 mm 3 mps 754 mmHg 80%
20:00 -12°C° 0 mm 3 mps 755 mmHg 84%
21:00 -12°C° 0 mm 2 mps 755 mmHg 86%
22:00 -12°C° 0 mm 2 mps 755 mmHg 88%
23:00 -13°C° 0 mm 2 mps 756 mmHg 90%

Day after tomorrow, 9 March, Tuesday

Time Temperature Precipitation Wind Pressure Humidity
00:00 -13°C° 0 mm 2 mps 756 mmHg 91%
01:00 -13°C° 0 mm 2 mps 756 mmHg 91%
02:00 -12°C° 0 mm 1 mps 756 mmHg 92%
03:00 -12°C° 0 mm 1 mps 757 mmHg 92%
04:00 -12°C° 0 mm 1 mps 757 mmHg 92%
05:00 -12°C° 0 mm 1 mps 757 mmHg 92%
06:00 -12°C° 0 mm 1 mps 757 mmHg 90%
07:00 -11°C° 0 mm 1 mps 758 mmHg 88%
08:00 -11°C° 0 mm 0 mps 758 mmHg 85%
09:00 -10°C° 0 mm 1 mps 758 mmHg 81%
10:00 -8°C° 0 mm 1 mps 758 mmHg 76%
11:00 -7°C° 0 mm 1 mps 758 mmHg 71%
12:00 -7°C° 0 mm 2 mps 758 mmHg 71%
13:00 -7°C° 0 mm 2 mps 758 mmHg 71%
14:00 -7°C° 0 mm 3 mps 757 mmHg 70%
15:00 -7°C° 0.2 mm 3 mps 757 mmHg 74%
16:00 -7°C° 0.2 mm 3 mps 757 mmHg 77%
17:00 -6°C° 0.2 mm 3 mps 756 mmHg 81%
18:00 -6°C° 0.1 mm 3 mps 756 mmHg 79%
19:00 -6°C° 0.1 mm 3 mps 756 mmHg 78%
20:00 -6°C° 0.1 mm 3 mps 756 mmHg 76%
21:00 -6°C° 0 mm 3 mps 756 mmHg 77%
22:00 -6°C° 0 mm 3 mps 756 mmHg 78%
23:00 -6°C° 0 mm 3 mps 756 mmHg 79%

10 March, Wednesday

Time Temperature Precipitation Wind Pressure Humidity
00:00 -6°C° 0.3 mm 3 mps 756 mmHg 83%
01:00 -6°C° 0.3 mm 3 mps 756 mmHg 86%
02:00 -6°C° 0.3 mm 3 mps 756 mmHg 90%
03:00 -6°C° 0.5 mm 3 mps 756 mmHg 91%
04:00 -7°C° 0.5 mm 3 mps 756 mmHg 93%
05:00 -6°C° 0.5 mm 2 mps 756 mmHg 94%
06:00 -8°C° 0.3 mm 3 mps 757 mmHg 93%
07:00 -9°C° 0.3 mm 3 mps 757 mmHg 93%
08:00 -9°C° 0.3 mm 3 mps 757 mmHg 92%
09:00 -9°C° 0.1 mm 3 mps 758 mmHg 90%
10:00 -9°C° 0.1 mm 3 mps 758 mmHg 88%
11:00 -9°C° 0.1 mm 3 mps 758 mmHg 87%
12:00 -8°C° 0.1 mm 3 mps 758 mmHg 86%
13:00 -9°C° 0.1 mm 4 mps 758 mmHg 86%
14:00 -8°C° 0.1 mm 4 mps 758 mmHg 86%
15:00 -8°C° 0.1 mm 4 mps 758 mmHg 87%
16:00 -9°C° 0.1 mm 4 mps 758 mmHg 89%
17:00 -9°C° 0.1 mm 4 mps 758 mmHg 90%
18:00 -10°C° 0 mm 4 mps 758 mmHg 90%
19:00 -10°C° 0 mm 4 mps 759 mmHg 90%
20:00 -10°C° 0 mm 3 mps 759 mmHg 90%
21:00 -10°C° 0 mm 3 mps 759 mmHg 91%
22:00 -12°C° 0 mm 3 mps 759 mmHg 91%
23:00 -13°C° 0 mm 3 mps 759 mmHg 91%

11 March, Thursday

Time Temperature Precipitation Wind Pressure Humidity
00:00 -13°C° 0 mm 3 mps 759 mmHg 92%
01:00 -13°C° 0 mm 3 mps 759 mmHg 92%
02:00 -14°C° 0 mm 3 mps 759 mmHg 93%
03:00 -13°C° 0 mm 2 mps 758 mmHg 93%
04:00 -13°C° 0 mm 2 mps 758 mmHg 94%
05:00 -13°C° 0 mm 2 mps 758 mmHg 94%
06:00 -13°C° 0 mm 2 mps 758 mmHg 93%
07:00 -13°C° 0 mm 2 mps 758 mmHg 93%
08:00 -12°C° 0 mm 2 mps 758 mmHg 92%
09:00 -10°C° 0 mm 2 mps 757 mmHg 89%
10:00 -8°C° 0 mm 2 mps 757 mmHg 86%
11:00 -6°C° 0 mm 2 mps 756 mmHg 83%
12:00 -5°C° 0 mm 2 mps 756 mmHg 81%
13:00 -5°C° 0 mm 3 mps 755 mmHg 78%
14:00 -4°C° 0 mm 4 mps 755 mmHg 76%
15:00 -4°C° 0 mm 3 mps 754 mmHg 76%
16:00 -4°C° 0 mm 3 mps 753 mmHg 77%
17:00 -4°C° 0 mm 3 mps 753 mmHg 77%
18:00 -4°C° 0 mm 4 mps 752 mmHg 77%
19:00 -5°C° 0 mm 5 mps 751 mmHg 76%
20:00 -5°C° 0 mm 5 mps 751 mmHg 76%
21:00 -5°C° 0 mm 6 mps 750 mmHg 73%
22:00 -5°C° 0 mm 6 mps 749 mmHg 71%
23:00 -6°C° 0 mm 7 mps 748 mmHg 69%

12 March, Friday

Time Temperature Precipitation Wind Pressure Humidity
00:00 -6°C° 0 mm 7 mps 747 mmHg 71%
01:00 -6°C° 0 mm 7 mps 746 mmHg 73%
02:00 -6°C° 0 mm 7 mps 745 mmHg 75%
03:00 -6°C° 0.7 mm 7 mps 744 mmHg 81%
04:00 -6°C° 0.7 mm 7 mps 743 mmHg 87%
05:00 -6°C° 0.7 mm 7 mps 742 mmHg 94%
06:00 -4°C° 1 mm 7 mps 741 mmHg 94%
07:00 -4°C° 1 mm 7 mps 741 mmHg 94%
08:00 -4°C° 1 mm 6 mps 740 mmHg 94%
09:00 -2°C° 0.2 mm 5 mps 740 mmHg 95%
10:00 -1°C° 0.2 mm 5 mps 740 mmHg 97%
11:00 -1°C° 0.2 mm 4 mps 740 mmHg 98%
12:00 0°C° 0.2 mm 4 mps 740 mmHg 97%
13:00 0°C° 0.2 mm 4 mps 740 mmHg 96%
14:00 0°C° 0.2 mm 4 mps 740 mmHg 96%
15:00 0°C° 0 mm 4 mps 740 mmHg 96%
16:00 0°C° 0 mm 4 mps 740 mmHg 96%
17:00 0°C° 0 mm 4 mps 740 mmHg 96%
18:00 0°C° 0 mm 4 mps 740 mmHg 95%
19:00 0°C° 0 mm 4 mps 740 mmHg 94%
20:00 0°C° 0 mm 5 mps 740 mmHg 93%
21:00 0°C° 0.4 mm 5 mps 740 mmHg 95%
22:00 0°C° 0.4 mm 5 mps 740 mmHg 96%
23:00 -1°C° 0.4 mm 5 mps 740 mmHg 97%
Show more